Change the Weather History Date:

Friday, October 19, 2012

  Actual Average Record
Temperature  
Mean Temperature 55 °F -  
Max Temperature 64 °F 57 °F 80 °F (1996)
Min Temperature 46 °F 37 °F 33 °F (1996)
Degree Days  
Heating Degree Days 10    
Growing Degree Days 5 (Base 50)    
Moisture  
Dew Point 51 °F    
Average Humidity 86    
Maximum Humidity 100    
Minimum Humidity 59    
Precipitation  
Precipitation 0.00 in 0.14 in - ()
Sea Level Pressure  
Sea Level Pressure 30.22 in    
Wind  
Wind Speed 1 mph ()    
Max Wind Speed 5 mph    
Max Gust Speed -    
Visibility 6.2 miles    
Events Fog    
Averages and records for this station are not official NWS values.
T = Trace of Precipitation, MM = Missing Value Source: Averaged Metar Reports

Daily Weather History Graph

Daily Weather History Graph

Search for Another Location

Airport or City:

Trip Planner

Search our weather history database for the weather conditions in past years. The results will help you decide how hot, cold, wet, or windy it might be!

Date:

Astronomy

Oct. 19, 2012 Rise Set
Actual Time 7:47 AM CEST 6:32 PM CEST
Civil Twilight 7:17 AM CEST 7:02 PM CEST
Nautical Twilight 6:42 AM CEST 7:36 PM CEST
Astronomical Twilight 6:08 AM CEST 8:10 PM CEST
Moon 12:25 PM CEST 9:41 PM CEST
Length of Visible Light 11h 45m
Length of Day
10h 44m
Waxing Crescent, 21% of the Moon is Illuminated
Oct 19
Waxing Crescent
Oct 22
First Quarter
Oct 29
Full
Nov 7
Last Quarter
Nov 13
New

Hourly Weather History & Observations

Time (CEST) Temp. Dew Point Humidity Pressure Visibility Wind Dir Wind Speed Gust Speed Precip Events Conditions
12:20 AM 46.4 °F 46.4 °F 100% 30.24 in - North 1.2 mph - N/A   Clear
12:50 AM 46.4 °F 46.4 °F 100% 30.24 in - North 2.3 mph - N/A   Clear
1:20 AM 48.2 °F 46.4 °F 93% 30.24 in - North 1.2 mph - N/A   Clear
1:50 AM 48.2 °F 48.2 °F 100% 30.24 in - NNW 1.2 mph - N/A   Clear
2:50 AM 51.8 °F 51.8 °F 100% 30.24 in 6.2 mi North 2.3 mph - N/A   Scattered Clouds
3:20 AM 53.6 °F 51.8 °F 94% 30.24 in 6.2 mi North 2.3 mph - N/A   Scattered Clouds
3:50 AM 53.6 °F 53.6 °F 100% 30.24 in 6.2 mi Calm Calm - N/A   Mostly Cloudy
4:20 AM 53.6 °F 53.6 °F 100% 30.24 in 6.2 mi NNW 2.3 mph - N/A   Mostly Cloudy
4:50 AM 51.8 °F 51.8 °F 100% 30.21 in 6.2 mi NNW 2.3 mph - N/A   Mostly Cloudy
5:20 AM 51.8 °F 51.8 °F 100% 30.21 in 6.2 mi Calm Calm - N/A   Mostly Cloudy
5:50 AM 51.8 °F 51.8 °F 100% 30.21 in 6.2 mi NNW 1.2 mph - N/A   Mostly Cloudy
6:20 AM 53.6 °F 51.8 °F 94% 30.21 in 6.2 mi Variable 1.2 mph - N/A   Mostly Cloudy
6:50 AM 53.6 °F 51.8 °F 94% 30.21 in 6.2 mi Variable 1.2 mph - N/A   Mostly Cloudy
7:20 AM 53.6 °F 51.8 °F 94% 30.21 in 6.2 mi NNW 2.3 mph - N/A   Mostly Cloudy
7:50 AM 53.6 °F 51.8 °F 94% 30.21 in 6.2 mi NNW 3.5 mph - N/A   Mostly Cloudy
8:20 AM 53.6 °F 53.6 °F 100% 30.24 in 6.2 mi North 2.3 mph - N/A   Mostly Cloudy
8:50 AM 53.6 °F 53.6 °F 100% 30.24 in 6.2 mi NNW 2.3 mph - N/A   Mostly Cloudy
9:20 AM 55.4 °F 53.6 °F 94% 30.24 in 6.2 mi NNW 3.5 mph - N/A   Mostly Cloudy
9:50 AM 55.4 °F 53.6 °F 94% 30.24 in 6.2 mi NNW 4.6 mph - N/A   Mostly Cloudy
10:20 AM 57.2 °F 53.6 °F 88% 30.24 in 6.2 mi NNW 2.3 mph - N/A   Mostly Cloudy
10:50 AM 59.0 °F 53.6 °F 82% 30.24 in 6.2 mi Variable 2.3 mph - N/A   Mostly Cloudy
11:20 AM 60.8 °F 53.6 °F 77% 30.24 in 6.2 mi Variable 2.3 mph - N/A   Mostly Cloudy
11:50 AM 62.6 °F 51.8 °F 68% 30.24 in 6.2 mi Calm Calm - N/A   Partly Cloudy
12:20 PM 62.6 °F 51.8 °F 68% 30.24 in - Variable 1.2 mph - N/A   Clear
12:50 PM 62.6 °F 51.8 °F 68% 30.24 in 6.2 mi Variable 2.3 mph - N/A   Mostly Cloudy
1:20 PM 62.6 °F 51.8 °F 68% 30.24 in 6.2 mi West 1.2 mph - N/A   Mostly Cloudy
1:50 PM 62.6 °F 51.8 °F 68% 30.21 in 6.2 mi West 2.3 mph - N/A   Mostly Cloudy
2:20 PM 64.4 °F 51.8 °F 64% 30.21 in 6.2 mi Variable 1.2 mph - N/A   Mostly Cloudy
2:50 PM 64.4 °F 50.0 °F 59% 30.21 in 6.2 mi Calm Calm - N/A   Mostly Cloudy
3:20 PM 64.4 °F 50.0 °F 59% 30.21 in 6.2 mi Calm Calm - N/A   Mostly Cloudy
3:50 PM 64.4 °F 50.0 °F 59% 30.21 in 6.2 mi Variable 1.2 mph - N/A   Mostly Cloudy
4:20 PM 62.6 °F 51.8 °F 68% 30.21 in 6.2 mi Variable 1.2 mph - N/A   Scattered Clouds
4:50 PM 62.6 °F 51.8 °F 68% 30.21 in 6.2 mi Variable 1.2 mph - N/A   Scattered Clouds
5:20 PM 64.4 °F 51.8 °F 64% 30.21 in 6.2 mi Calm Calm - N/A   Partly Cloudy
5:50 PM 62.6 °F 50.0 °F 63% 30.21 in 6.2 mi Calm Calm - N/A   Partly Cloudy
6:20 PM 57.2 °F 51.8 °F 82% 30.21 in 6.2 mi Calm Calm - N/A   Partly Cloudy
6:50 PM 57.2 °F 51.8 °F 82% 30.21 in - Calm Calm - N/A   Clear
7:20 PM 53.6 °F 50.0 °F 88% 30.21 in - Calm Calm - N/A   Clear
7:50 PM 55.4 °F 50.0 °F 82% 30.21 in - North 2.3 mph - N/A   Clear
8:20 PM 55.4 °F 51.8 °F 88% 30.21 in - North 3.5 mph - N/A   Clear
8:50 PM 53.6 °F 51.8 °F 94% 30.21 in - North 2.3 mph - N/A   Clear
9:20 PM 53.6 °F 51.8 °F 94% 30.21 in - Calm Calm - N/A   Clear
9:50 PM 51.8 °F 51.8 °F 100% 30.24 in - Variable 1.2 mph - N/A   Clear
10:20 PM 50.0 °F 50.0 °F 100% 30.24 in 6.2 mi Calm Calm - N/A Fog Shallow Fog
10:50 PM 50.0 °F 48.2 °F 94% 30.24 in 6.2 mi Variable 1.2 mph - N/A Fog Shallow Fog
11:20 PM 48.2 °F 46.4 °F 93% 30.24 in 6.2 mi Calm Calm - N/A Fog Shallow Fog
11:50 PM 50.0 °F 46.4 °F 87% 30.21 in 6.2 mi North 2.3 mph - N/A Fog Shallow Fog